This is the latest recevied weather packets stored in our database for station/object K5SVV. If no packets are shown the sender has not sent any weather packets the latest 10 day(s).
| Time | Temp. | Humidity | Pressure | Rain* | Wind** | Luminosity | Snow |
|---|---|---|---|---|---|---|---|
| 1777912175 | 22.22° C | 67% | 1012.3 hPa | 0 mm | - | 770 W/m² | - |
| 1777911872 | 22.78° C | 67% | 1012.6 hPa | 0 mm | - | 744 W/m² | - |
| 1777911568 | 22.22° C | 67% | 1012.5 hPa | 0 mm | - | 742 W/m² | - |
| 1777911264 | 22.22° C | 67% | 1012.2 hPa | 0 mm | - | 744 W/m² | - |
| 1777910961 | 22.22° C | 67% | 1012.4 hPa | 0 mm | - | 807 W/m² | - |
| 1777910660 | 21.67° C | 67% | 1012.4 hPa | 0 mm | - | 820 W/m² | - |
| 1777910355 | 21.67° C | 66% | 1012.5 hPa | 0 mm | - | 832 W/m² | - |
| 1777910052 | 21.67° C | 68% | 1012.4 hPa | 0 mm | - | 883 W/m² | - |
| 1777909750 | 21.67° C | 68% | 1012.2 hPa | 0 mm | - | 833 W/m² | - |
| 1777909446 | 21.11° C | 69% | 1012.8 hPa | 0 mm | - | 778 W/m² | - |
| 1777909144 | 21.11° C | 69% | 1012.6 hPa | 0 mm | - | 723 W/m² | - |
| 1777908842 | 21.11° C | 71% | 1012.5 hPa | 0 mm | - | 788 W/m² | - |
| 1777908539 | 21.11° C | 70% | 1012.5 hPa | 0 mm | - | 810 W/m² | - |
| 1777908236 | 21.11° C | 72% | 1012.6 hPa | 0 mm | - | 732 W/m² | - |
| 1777907932 | 20.56° C | 71% | 1012.8 hPa | 0 mm | - | 721 W/m² | - |
| 1777907628 | 20.56° C | 72% | 1012.4 hPa | 0 mm | - | 721 W/m² | - |
| 1777907323 | 20.56° C | 72% | 1013 hPa | 0 mm | - | 677 W/m² | - |
| 1777907020 | 20.56° C | 72% | 1012.9 hPa | 0 mm | - | 616 W/m² | - |
| 1777906718 | 20.56° C | 73% | 1013.1 hPa | 0 mm | - | 612 W/m² | - |
| 1777906414 | 20.56° C | 73% | 1012.8 hPa | 0 mm | - | 577 W/m² | - |
| 1777906110 | 20° C | 75% | 1013.1 hPa | 0 mm | - | 561 W/m² | - |
| 1777905807 | 20° C | 74% | 1013 hPa | 0 mm | - | 574 W/m² | - |
| 1777905505 | 20° C | 74% | 1013 hPa | 0 mm | - | 527 W/m² | - |
| 1777905201 | 19.44° C | 75% | 1012.9 hPa | 0 mm | - | 494 W/m² | - |
| 1777904899 | 19.44° C | 75% | 1012.9 hPa | 0 mm | - | 473 W/m² | - |
* Rain latest hour (hover to see other rain measurements)
** Current wind speed in m/s (hover to see current wind gust speed)